SCP
0 0 0 0 0 0 0 0 0 0 0 0 0 0 0 0 0 0 0 0 -0 0 0 0 0 0 0 0 0 -0 -0 -0 0
0 0 0 0 0 0 0 0 0 0 0 0 0 0 0 0 0 0 0 0 0 0 0 0 0 0 0 0 0 0 0 0 0
0 0 0 0 0 0 0 0 0 0 0 0 0 0 0 0 0 0 0 0 0 0 0 0 0 0 0 0 0 0 0 0 0
0 0 0 0 0 0 0 0 0 0 0 0 0 0 0 0 0 0 0 0 0 0 0 0 0 0 0 0 0 0 0 0 0
0 0 0 0 0 0 0 0 0 0 0 0 0 0 0 0 0 0 0 0 0 0 0 0 0 0 0 0 0 0 0 0 0
0 0 0 0 0 0 0 0 0 0 0 0 0 0 0 0 0 0 0 0 0 0 0 0 0 0 0 0 0 0 0 0 0
0 0 0 0 0 0 0 0 0 0 0 0 0 0 0 0 0 0 0 0 0 0 0 0 0 0 0 0 0 0 0 0 0
0 0 0 0 0 0 0 0 0 0 0 0 0 0 0 0 0 0 0 0 0 0 0 0 0 0 0 0 0 0 0 0 0
0 0 0 0 0 0 0 0 0 0 0 0 0 0 0 0 0 0 0 0 0 0 0 0 0 0 0 0 0 0 0 0 0
0 0 0 0 0 0 0 0 0 0 0 0 0 0 0 0 0 0 0 0 0 0 0 0 0 0 0 0 0 0 0 0 0
0 0 0 0 0 0 0 0 0 0 0 0 0 0 0 0 0 0 0 0 0 0 0 0 0 0 0 0 0 0 0 0 0
0 0 0 0 0 0 0 0 0 0 0 0 0 0 0 0 0 0 0 0 0 0 0 0 0 0 0 0 0 0 0 0 0
0 0 0 0 0 0 0 0 0 0 0 0 0 0 0 0 0 0 0 0 0 0 0 0 0 0 0 0 0 0 0 0 0
0 0 0 0 0 0 0 0 0 0 0 0 0 0 0 0 0 0 0 0 0 0 0 0 0 0 0 0 0 0 0 0 0
0 0 0 0 0 0 0 0 0 0 0 0 0 0 0 0 0 0 0 0 0 0 0 0 0 0 0 0 0 0 0 0 0
0 0 0 0 0 0 0 0 0 0 0 0 0 0 0 0 0 0 0 0 0 0 0 0 0 0 0 0 0 0 0 0 0
0 0 0 0 0 0 0 0 0 0 0 0 0 0 0 0 0 0 0 0 0 0 0 0 0 0 0 0 0 0 0 0 0
0 0 0 0 0 0 0 0 0 0 0 0 0 0 0 0 0 0 0 0 0 0 0 0 0 0 0 0 0 0 0 0 0
0 0 0 0 0 0 0 0 0 0 0 0 0 0 0 0 0 0 0 0 0 0 0 0 0 0 0 0 0 0 0 0 0
0 0 0 0 0 0 0 0 0 0 0 0 0 0 0 0 0 0 0 0 0 0 0 0 0 0 0 0 0 0 0 0 0
Wind_Speed_500mb
14 18 25 30 26 24 19 13 5 2 11 13 14 12 14 14 15 17 18 21 20 18 11 9 17 9 7 4 4 7 8 11 5
15 17 18 25 24 21 17 11 7 12 13 11 10 10 11 12 10 12 16 21 15 13 14 11 9 10 15 12 13 15 1 2 3
18 19 21 21 20 17 16 17 17 14 10 8 6 5 4 6 7 7 8 9 6 7 3 1 1 4 6 7 3 2 5 7 13
20 21 22 23 23 23 23 21 17 11 7 4 3 4 5 4 3 2 3 7 7 1 1 4 10 13 10 7 10 13 13 10 6
21 21 22 23 23 23 21 17 13 7 4 4 6 6 5 4 2 1 3 3 7 7 7 11 14 14 9 10 12 11 13 12 11
21 19 20 21 21 21 18 14 11 7 6 6 6 5 4 4 5 6 8 6 11 11 9 11 14 13 10 11 12 13 14 15 14
21 21 20 22 21 19 16 13 10 8 7 6 5 5 6 6 9 8 8 9 14 14 11 12 13 14 11 10 11 11 11 12 12
29 25 25 25 24 21 18 15 13 10 9 9 9 8 8 8 10 11 11 13 19 16 10 9 10 10 10 10 10 10 11 12 13
33 30 26 26 24 22 19 18 17 14 12 12 11 10 11 11 11 12 12 15 19 17 11 7 8 9 10 10 11 13 14 15 17
34 36 32 28 26 24 22 21 20 17 15 13 13 13 14 13 12 11 12 14 17 15 11 9 8 9 11 13 14 15 16 16 17
39 39 38 35 30 28 26 23 22 20 18 15 15 15 14 14 11 11 11 12 13 12 11 8 8 10 14 15 17 20 20 21 21
45 41 41 37 33 33 31 28 27 24 21 18 18 17 16 14 13 12 11 11 11 12 11 9 8 12 14 17 19 23 24 26 27
52 49 45 39 38 38 36 31 29 28 24 22 21 20 18 17 15 14 13 13 12 11 11 10 12 11 13 15 18 23 25 29 30
59 56 48 47 45 45 42 36 32 30 27 26 25 23 22 20 19 17 16 15 13 12 13 14 14 13 15 18 20 25 28 31 34
62 60 56 53 52 52 50 44 38 34 32 30 29 26 26 24 22 21 20 19 18 16 17 17 17 19 20 23 26 30 32 35 37
60 58 59 61 62 59 52 51 47 43 38 34 34 31 30 29 28 26 24 23 23 22 22 22 23 25 27 30 34 36 35 36 38
63 65 62 66 64 62 62 58 54 50 46 42 37 24 34 37 36 33 30 28 29 28 28 28 29 31 34 39 40 40 41 40 38
67 67 69 67 67 68 65 64 61 58 51 48 37 17 21 24 34 40 37 33 34 33 32 33 36 39 43 44 44 43 43 42 39
73 69 69 69 70 71 71 69 64 65 58 51 54 53 34 18 15 35 39 37 37 37 36 38 41 44 48 47 46 47 44 44 45
76 72 73 74 77 74 74 74 62 71 67 63 63 58 53 47 39 24 30 34 37 38 40 42 45 49 49 47 46 47 51 49 49
Wind_Direction_500mb
146 154 156 165 146 149 155 160 182 107 129 136 135 117 96 95 86 70 77 64 67 60 69 60 62 52 75 72 8 356 35 28 51
136 143 146 154 160 160 166 172 151 133 135 134 126 115 89 87 82 75 75 65 72 69 65 77 58 48 99 77 77 58 34 331 284
134 135 140 150 161 164 162 149 139 137 137 127 127 129 98 92 89 82 65 58 8 340 306 150 126 21 108 134 173 293 91 69 83
145 140 139 142 144 144 144 145 149 157 161 162 162 145 150 138 102 55 54 3 359 4 349 316 295 292 296 280 261 272 279 277 239
158 154 151 150 150 150 153 159 162 172 177 165 147 139 166 212 238 309 339 338 283 282 287 284 283 288 300 298 298 298 292 286 280
173 167 163 162 163 163 167 175 171 174 162 152 157 166 189 227 272 295 311 294 285 289 279 272 289 308 314 309 305 301 297 297 290
184 182 179 179 177 177 182 189 182 177 174 176 199 238 261 264 272 282 288 285 283 306 292 280 289 304 321 318 314 312 310 308 304
199 195 194 193 192 194 196 200 201 204 218 237 256 262 265 271 276 280 278 261 275 308 311 300 296 310 325 327 320 316 317 318 315
210 208 208 207 206 209 210 212 217 220 236 251 265 270 282 282 278 274 265 263 275 303 316 300 304 318 322 322 322 319 317 313 310
220 216 213 213 216 219 222 226 226 235 243 251 264 275 283 281 277 273 269 267 278 290 292 300 311 313 314 317 316 314 316 317 314
228 222 218 218 221 220 227 226 233 244 251 259 264 273 277 281 275 270 265 263 268 269 274 288 303 308 311 314 311 309 316 315 315
231 225 221 220 224 221 223 228 235 245 251 258 263 266 268 270 272 266 261 251 253 259 265 273 283 293 293 303 312 316 318 314 312
237 231 226 224 227 224 222 231 238 243 250 257 258 261 264 267 266 265 250 244 244 246 256 259 287 286 287 296 306 310 314 315 314
240 236 231 226 228 225 225 232 237 241 248 252 252 257 261 262 266 255 245 244 240 252 249 261 281 281 289 292 300 308 309 309 311
240 238 231 228 230 228 227 232 235 240 245 248 248 251 255 257 257 246 238 242 245 256 258 274 278 284 295 298 303 308 307 307 308
236 235 230 229 230 229 229 232 233 235 239 243 244 246 251 253 249 244 239 244 248 257 260 272 279 287 298 300 303 305 304 304 305
235 239 234 228 231 229 230 233 234 234 235 236 239 242 245 246 244 243 241 249 251 259 264 273 281 288 297 302 303 302 301 301 299
243 240 243 237 231 233 233 235 235 236 235 237 230 218 230 229 239 239 239 249 252 258 264 272 281 288 298 303 303 301 300 298 295
250 245 243 249 241 235 235 236 241 239 236 243 240 238 244 226 236 241 243 247 251 257 262 269 278 288 298 300 298 297 296 295 293
251 246 244 246 245 240 236 237 241 242 235 239 243 238 241 244 239 245 246 248 251 256 261 270 279 287 291 292 292 292 293 293 292
Wind_Speed_850mb
14 18 25 30 26 24 19 13 5 2 11 13 14 12 14 14 15 17 18 21 20 18 11 9 17 9 7 4 4 7 8 11 5
15 17 18 25 24 21 17 11 7 12 13 11 10 10 11 12 10 12 16 21 15 13 14 11 9 10 15 12 13 15 1 2 3
18 19 21 21 20 17 16 17 17 14 10 8 6 5 4 6 7 7 8 9 6 7 3 1 1 4 6 7 3 2 5 7 13
20 21 22 23 23 23 23 21 17 11 7 4 3 4 5 4 3 2 3 7 7 1 1 4 10 13 10 7 10 13 13 10 6
21 21 22 23 23 23 21 17 13 7 4 4 6 6 5 4 2 1 3 3 7 7 7 11 14 14 9 10 12 11 13 12 11
21 19 20 21 21 21 18 14 11 7 6 6 6 5 4 4 5 6 8 6 11 11 9 11 14 13 10 11 12 13 14 15 14
21 21 20 22 21 19 16 13 10 8 7 6 5 5 6 6 9 8 8 9 14 14 11 12 13 14 11 10 11 11 11 12 12
29 25 25 25 24 21 18 15 13 10 9 9 9 8 8 8 10 11 11 13 19 16 10 9 10 10 10 10 10 10 11 12 13
33 30 26 26 24 22 19 18 17 14 12 12 11 10 11 11 11 12 12 15 19 17 11 7 8 9 10 10 11 13 14 15 17
34 36 32 28 26 24 22 21 20 17 15 13 13 13 14 13 12 11 12 14 17 15 11 9 8 9 11 13 14 15 16 16 17
39 39 38 35 30 28 26 23 22 20 18 15 15 15 14 14 11 11 11 12 13 12 11 8 8 10 14 15 17 20 20 21 21
45 41 41 37 33 33 31 28 27 24 21 18 18 17 16 14 13 12 11 11 11 12 11 9 8 12 14 17 19 23 24 26 27
52 49 45 39 38 38 36 31 29 28 24 22 21 20 18 17 15 14 13 13 12 11 11 10 12 11 13 15 18 23 25 29 30
59 56 48 47 45 45 42 36 32 30 27 26 25 23 22 20 19 17 16 15 13 12 13 14 14 13 15 18 20 25 28 31 34
62 60 56 53 52 52 50 44 38 34 32 30 29 26 26 24 22 21 20 19 18 16 17 17 17 19 20 23 26 30 32 35 37
60 58 59 61 62 59 52 51 47 43 38 34 34 31 30 29 28 26 24 23 23 22 22 22 23 25 27 30 34 36 35 36 38
63 65 62 66 64 62 62 58 54 50 46 42 37 24 34 37 36 33 30 28 29 28 28 28 29 31 34 39 40 40 41 40 38
67 67 69 67 67 68 65 64 61 58 51 48 37 17 21 24 34 40 37 33 34 33 32 33 36 39 43 44 44 43 43 42 39
73 69 69 69 70 71 71 69 64 65 58 51 54 53 34 18 15 35 39 37 37 37 36 38 41 44 48 47 46 47 44 44 45
76 72 73 74 77 74 74 74 62 71 67 63 63 58 53 47 39 24 30 34 37 38 40 42 45 49 49 47 46 47 51 49 49
Wind_Direction_850mb
146 154 156 165 146 149 155 160 182 107 129 136 135 117 96 95 86 70 77 64 67 60 69 60 62 52 75 72 8 356 35 28 51
136 143 146 154 160 160 166 172 151 133 135 134 126 115 89 87 82 75 75 65 72 69 65 77 58 48 99 77 77 58 34 331 284
134 135 140 150 161 164 162 149 139 137 137 127 127 129 98 92 89 82 65 58 8 340 306 150 126 21 108 134 173 293 91 69 83
145 140 139 142 144 144 144 145 149 157 161 162 162 145 150 138 102 55 54 3 359 4 349 316 295 292 296 280 261 272 279 277 239
158 154 151 150 150 150 153 159 162 172 177 165 147 139 166 212 238 309 339 338 283 282 287 284 283 288 300 298 298 298 292 286 280
173 167 163 162 163 163 167 175 171 174 162 152 157 166 189 227 272 295 311 294 285 289 279 272 289 308 314 309 305 301 297 297 290
184 182 179 179 177 177 182 189 182 177 174 176 199 238 261 264 272 282 288 285 283 306 292 280 289 304 321 318 314 312 310 308 304
199 195 194 193 192 194 196 200 201 204 218 237 256 262 265 271 276 280 278 261 275 308 311 300 296 310 325 327 320 316 317 318 315
210 208 208 207 206 209 210 212 217 220 236 251 265 270 282 282 278 274 265 263 275 303 316 300 304 318 322 322 322 319 317 313 310
220 216 213 213 216 219 222 226 226 235 243 251 264 275 283 281 277 273 269 267 278 290 292 300 311 313 314 317 316 314 316 317 314
228 222 218 218 221 220 227 226 233 244 251 259 264 273 277 281 275 270 265 263 268 269 274 288 303 308 311 314 311 309 316 315 315
231 225 221 220 224 221 223 228 235 245 251 258 263 266 268 270 272 266 261 251 253 259 265 273 283 293 293 303 312 316 318 314 312
237 231 226 224 227 224 222 231 238 243 250 257 258 261 264 267 266 265 250 244 244 246 256 259 287 286 287 296 306 310 314 315 314
240 236 231 226 228 225 225 232 237 241 248 252 252 257 261 262 266 255 245 244 240 252 249 261 281 281 289 292 300 308 309 309 311
240 238 231 228 230 228 227 232 235 240 245 248 248 251 255 257 257 246 238 242 245 256 258 274 278 284 295 298 303 308 307 307 308
236 235 230 229 230 229 229 232 233 235 239 243 244 246 251 253 249 244 239 244 248 257 260 272 279 287 298 300 303 305 304 304 305
235 239 234 228 231 229 230 233 234 234 235 236 239 242 245 246 244 243 241 249 251 259 264 273 281 288 297 302 303 302 301 301 299
243 240 243 237 231 233 233 235 235 236 235 237 230 218 230 229 239 239 239 249 252 258 264 272 281 288 298 303 303 301 300 298 295
250 245 243 249 241 235 235 236 241 239 236 243 240 238 244 226 236 241 243 247 251 257 262 269 278 288 298 300 298 297 296 295 293
251 246 244 246 245 240 236 237 241 242 235 239 243 238 241 244 239 245 246 248 251 256 261 270 279 287 291 292 292 292 293 293 292